This demonstration page uses our WeatherBlox Daily Observations layout. Learn more.

Left ArrowRight Arrow

Hourly Observations for June 12, 2017

Temp ( °F °C ) Dew Point ( °F °C ) Humidity (%) Winds ( mph kmh ) Pressure ( in mb ) Visibility ( mi km ) Precip ( " mm )
12:56 am 00:56 Clear 81 27.3 68 19.9 64 64 S 14 22 29.76 1008 10 16 0.00 0.00
1:56 am 01:56 Mostly Clear 79 26.3 67 19.7 67 67 SSE 14 22 29.76 1008 10 16 0.00 0.00
2:56 am 02:56 Clear 78 25.8 67 19.7 69 69 SSE 13 20 29.78 1008 10 16 0.00 0.00
3:56 am 03:56 Clear 77 25.1 67 19.4 71 71 SSE 10 17 29.78 1008 10 16 0.00 0.00
4:56 am 04:56 Mostly Clear 76 24.5 67 19.3 73 73 SSE 9 15 29.79 1009 10 16 0.00 0.00
5:56 am 05:56 Sunny 75 23.7 67 19.4 77 77 SE 9 15 29.79 1009 10 16 0.00 0.00
6:56 am 06:56 Sunny 75 24 67 19.3 75 75 SE 10 17 29.80 1009 10 16 0.00 0.00
7:56 am 07:56 Sunny 74 23.5 66 19 76 76 SSE 9 15 29.83 1010 10 16 0.00 0.00
8:56 am 08:56 Partly Cloudy with Thunderstorms 74 23.3 66 18.8 76 76 SSE 8 13 29.86 1011 10 16 0.00 0.00
9:36 am 09:36 Mostly Cloudy with Thunderstorms 73 23 66 19 78 78 SE 10 17 29.84 1011 10 16 0.00 0.00
9:56 am 09:56 Cloudy with Thunderstorms 72 22 67 19.5 86 86 SSE 7 11 29.84 1011 8 13 0.01 0.25
10:02 am 10:02 Cloudy with Thunderstorms 72 22 68 20 88 88 SE 7 11 29.84 1011 10 16 0.00 0.00
10:24 am 10:24 Sunny 72 22 68 20 88 88 ESE 7 11 29.84 1011 10 16 0.00 0.00
10:56 am 10:56 Sunny 72 22.4 68 19.9 86 86 ESE 8 13 29.84 1011 10 16 0.00 0.03
11:56 am 11:56 Sunny 76 24.6 69 20.7 79 79 S 14 22 29.82 1010 10 16 0.00 0.00
12:22 pm 12:22 Sunny with Thunderstorms 77 25 70 21 79 79 S 10 17 29.85 1011 10 16 0.00 0.00
12:30 pm 12:30 Partly Cloudy with Thunderstorms 77 25 70 21 79 79 ESE 9 15 29.81 1010 10 16 0.00 0.00
12:33 pm 12:33 Partly Cloudy with Thunderstorms 77 25 70 21 79 79 E 12 19 29.80 1009 10 16 0.00 0.00
12:56 pm 12:56 Mostly Sunny 76 24.4 69 20.7 80 80 ESE 16 26 29.78 1008 10 16 0.01 0.25
2:17 pm 14:17 Sunny 81 27 66 19 62 62 ESE 25 41 29.71 1006 10 16 0.00 0.00
2:24 pm 14:24 Windy with Storms Likely 79 26 66 19 65 65 ESE 24 39 29.85 1011 10 16 0.00 0.00
2:41 pm 14:41 Mostly Cloudy 73 23 61 16 65 65 ESE 20 31 29.87 1011 10 16 0.00 0.00
2:56 pm 14:56 Sunny 77 25.2 57 13.7 49 49 SSE 9 15 29.68 1005 10 16 0.00 0.03
2:58 pm 14:58 Sunny 79 26 55 13 45 45 SW 14 22 29.68 1005 10 16 0.00 0.00
3:56 pm 15:56 Sunny 79 26.2 68 19.8 68 68 SW 8 13 29.74 1007 10 16 0.00 0.03
4:29 pm 16:29 Partly Cloudy with Drizzle 81 27 68 20 66 66 WNW 6 9 29.74 1007 10 16 0.00 0.00
4:38 pm 16:38 Partly Cloudy with Nearby Thunderstorms 82 28 70 21 66 66 WNW 8 13 29.74 1007 10 16 0.00 0.00
4:56 pm 16:56 Mostly Sunny 81 27.3 70 21.1 69 69 WNW 8 13 29.74 1007 10 16 0.00 0.03
5:46 pm 17:46 Partly Cloudy with Thunderstorms 82 28 70 21 66 66 NNE 7 11 29.74 1007 10 16 0.00 0.00
5:56 pm 17:56 Partly Cloudy with Thunderstorms 82 27.8 70 21.3 68 68 NE 9 15 29.71 1006 10 16 0.00 0.00
6:14 pm 18:14 Sunny with Nearby Thunderstorms 82 28 72 22 70 70 ENE 6 9 29.71 1006 10 16 0.00 0.00
6:56 pm 18:56 Sunny 84 28.8 73 22.5 69 69 ENE 10 17 29.71 1006 10 16 0.00 0.00
7:56 pm 19:56 Sunny 83 28.2 73 22.6 72 72 E 14 22 29.74 1007 10 16 0.00 0.00
8:56 pm 20:56 Mostly Sunny 81 27.2 74 23.2 79 79 ESE 8 13 29.75 1007 10 16 0.00 0.00
9:56 pm 21:56 Clear 82 28 71 21.7 69 69 SE 9 15 29.75 1007 10 16 0.00 0.00
10:56 pm 22:56 Clear 80 26.4 71 21.6 75 75 SE 9 15 29.78 1008 10 16 0.00 0.00
11:56 pm 23:56 Clear 78 25.7 70 21.1 76 76 SE 9 15 29.79 1009 10 16 0.00 0.00

Powered by AerisWeather